CST,Max TemperatureF,Mean TemperatureF,Min TemperatureF,Max Dew PointF,MeanDew PointF,Min DewpointF,Max Humidity, Mean Humidity, Min Humidity, Max Sea Level PressureIn, Mean Sea Level PressureIn, Min Sea Level PressureIn, Max VisibilityMiles, Mean VisibilityMiles, Min VisibilityMiles, Max Wind SpeedMPH, Mean Wind SpeedMPH, Max Gust SpeedMPH,PrecipitationIn, CloudCover, Events, WindDirDegrees
2012-12-1,74,59,44,55,48,43,100,91,43,30.31,30.26,30.23,10,5,1,9,1,,0.00,2,,70
2012-12-2,75,58,42,59,50,43,100,95,48,30.35,30.28,30.24,10,3,0,8,1,,0.00,1,Fog,36
2012-12-3,76,62,48,65,52,48,100,92,44,30.31,30.25,30.21,10,3,0,13,1,,0.00,2,Fog,123
2012-12-4,76,62,48,66,56,48,100,97,58,30.29,30.23,30.19,10,3,0,14,2,20,0.00,1,Fog,154
2012-12-5,73,60,48,62,52,48,100,97,57,30.21,30.17,30.08,10,3,0,7,1,,0.01,1,Fog,151
2012-12-6,77,61,45,57,50,45,100,93,45,30.08,30.04,29.99,10,4,0,8,1,,0.00,1,Fog,56
2012-12-7,68,62,56,61,59,56,100,93,73,30.07,30.01,29.96,10,8,1,10,5,,0.00,6,,93
2012-12-8,75,64,53,64,60,54,100,95,60,30.04,30.02,29.95,10,6,0,10,3,,0.06,4,Fog-Rain,115
2012-12-9,74,64,53,67,60,54,100,95,63,30.10,30.04,29.96,10,4,0,10,2,,0.01,3,Fog,146
2012-12-10,76,66,56,68,64,55,100,89,68,29.96,29.87,29.78,10,9,3,23,9,30,0.00,5,Rain,232
2012-12-11,55,48,42,52,44,37,94,83,70,30.15,30.00,29.91,10,10,4,15,10,,0.12,8,Rain,356
2012-12-12,51,44,36,41,39,33,93,88,60,30.24,30.15,30.09,10,10,7,10,7,,0.03,5,Rain,358
2012-12-13,60,46,32,45,39,31,100,86,55,30.34,30.29,30.24,10,8,2,10,5,,0.00,2,,21
2012-12-14,50,44,39,45,43,39,100,96,76,30.36,30.27,30.16,10,4,0,9,5,,0.00,7,Fog,54
2012-12-15,68,55,42,60,49,43,100,91,64,30.17,30.12,30.06,10,7,1,8,3,,0.00,5,,84
2012-12-16,71,66,59,67,63,58,100,93,78,30.05,29.96,29.88,10,8,0,24,7,33,0.06,6,Fog-Rain,151
2012-12-17,72,64,57,68,61,55,100,93,82,29.89,29.83,29.77,10,8,2,20,8,29,0.24,6,Fog-Rain-Thunderstorm,203
2012-12-18,66,54,39,56,47,37,100,85,34,30.06,29.98,29.88,10,7,0,8,4,,0.01,0,Fog,309
2012-12-19,71,53,35,57,49,33,95,81,52,30.12,30.05,29.99,10,10,10,13,3,,0.00,2,,139
2012-12-20,72,59,45,70,58,29,100,82,31,30.18,29.92,29.80,10,10,3,25,11,38,0.09,6,Rain,192
2012-12-21,54,44,35,26,19,11,59,39,18,30.33,30.25,30.17,10,10,10,20,11,26,0.00,0,,309
2012-12-22,59,42,26,30,22,15,83,54,18,30.41,30.32,30.27,10,10,10,13,5,18,0.00,0,,335
2012-12-23,55,41,27,43,35,26,92,73,53,30.27,30.19,30.08,10,10,10,5,1,,0.00,3,,131
2012-12-24,68,58,48,64,61,44,100,95,83,30.05,29.94,29.89,10,5,0,21,8,30,0.22,6,Fog-Rain,202
2012-12-25,70,64,56,68,63,52,100,94,72,29.92,29.82,29.60,10,5,0,30,6,40,0.40,6,Fog-Rain-Thunderstorm,152
2012-12-26,57,46,34,52,36,30,84,67,51,30.13,29.90,29.68,10,10,10,22,12,31,0.00,4,,296
2012-12-27,52,42,32,36,31,28,94,75,45,30.19,30.11,29.81,10,10,10,13,6,,0.00,5,,343
2012-12-28,60,46,31,61,47,30,100,84,65,30.10,29.91,29.76,10,8,1,15,5,24,0.99,6,Rain,121
2012-12-29,62,49,36,63,41,27,100,76,52,30.35,30.06,29.77,10,10,10,20,12,30,0.01,6,,317
2012-12-30,53,40,27,32,26,23,92,66,33,30.50,30.41,30.35,10,10,10,12,7,,0.00,0,,5
2012-12-31,60,44,27,52,43,25,92,77,59,30.37,30.27,30.13,10,10,10,10,3,,0.00,6,,71